Vertical_Velocity
-0 0 -1 -4 -1 4 1 1 3 2 5 4 3 1 5 2 2 7 5 2 -2 -3 1 -2 1 2 -0 -1 -0 -1 -2 -1 -2 1 -2 -0 0 0 1 -4 -3 -2 -0 1 -4 -2 2 2 -3
-0 -1 -1 1 2 2 3 2 1 2 5 4 3 1 2 0 3 2 2 1 2 -2 -1 -1 -1 1 -1 1 -2 -2 -2 1 1 3 -3 -0 -1 1 1 2 -1 -0 -0 -6 6 -0 -2 2 -0
-1 -2 -1 2 1 -2 -1 0 0 3 -1 1 -1 -1 2 2 3 5 3 -2 -0 -1 -2 -0 1 0 -1 0 -0 -1 -3 0 -4 4 -6 -0 -3 -2 2 -1 -1 1 -2 2 -1 3 -2 -3 -3
-2 -2 -1 -1 -2 2 0 3 0 0 2 1 1 -2 3 -2 4 2 0 3 1 0 0 2 1 0 0 -3 -2 -3 1 -1 -1 0 0 -1 -1 1 -3 -1 3 -2 -1 3 -0 1 -2 -2 0
-4 -2 3 -3 1 3 3 11 3 6 4 -1 -5 -2 0 -2 -4 -1 3 1 -1 0 -0 -1 -0 0 -2 -2 -3 -6 -0 -7 -1 -2 1 -2 -4 -2 1 -0 1 0 3 -0 1 -1 -0 0 0
-3 1 -1 -2 1 1 5 -5 3 2 -1 -4 -7 -5 -3 -2 1 2 -1 -0 -1 -1 -2 -3 1 -7 -3 0 -1 1 -1 -1 -3 -1 -4 -1 -2 0 -0 0 -1 -0 1 1 1 1 1 -0 -1
1 -1 -2 1 -3 2 5 7 5 3 4 -1 -1 2 -0 1 2 2 0 -0 1 1 1 1 -1 -4 -4 -4 -4 -3 -2 -2 1 -2 -3 -3 -3 -2 -1 2 1 -1 -0 -0 1 -1 -0 3 -0
-1 -0 -3 1 -2 -11 4 3 4 2 2 -1 1 2 0 1 3 1 -0 -1 1 2 3 2 1 3 3 3 4 2 2 5 5 2 -2 -2 1 1 0 -0 1 1 2 -1 -0 0 -0 1 3
0 -2 -2 3 -0 0 1 3 2 1 1 2 -2 -2 0 0 1 1 0 -1 -1 -1 0 2 1 1 -1 3 1 2 1 2 2 2 2 2 0 -1 -1 -2 -2 -1 1 -0 1 0 -0 -0 0
-0 0 -1 1 3 -3 1 2 6 1 1 2 2 4 4 6 4 2 1 -0 -1 -1 1 2 3 1 0 -0 1 0 -2 0 3 2 1 0 1 1 2 0 0 -2 -0 0 -0 -1 -1 1 0
-2 -2 0 -0 -1 2 -2 -0 2 1 -1 -6 -0 1 2 3 2 2 -3 -3 -2 -4 -4 -1 -3 -2 -1 0 0 -2 -1 -1 0 0 3 1 1 -2 -1 1 1 3 2 1 0 -3 -0 -2 -1
-3 -0 1 0 -1 0 -3 -2 -3 1 3 1 3 -1 2 4 3 4 -0 -0 1 -2 -1 -1 -1 -1 -1 -1 -2 -0 -0 -0 2 2 1 1 -1 -1 -2 -3 -2 1 3 2 -1 -1 -3 -2 -3
-5 -0 -1 -0 -1 -3 -0 -1 -1 3 -2 2 3 3 3 4 5 4 3 1 1 0 -1 1 0 0 -1 -2 -2 -2 -1 -0 -0 1 2 1 1 1 2 -0 -2 -1 1 2 2 2 1 1 -4
-4 1 1 -0 -0 -2 -3 -4 2 -1 -5 -3 1 1 3 4 4 1 0 1 0 -0 0 -1 -3 -1 -2 -2 -1 -1 -2 -2 -2 -1 -1 1 1 2 1 -1 -1 -1 -2 -3 -1 -2 1 2 2
-3 0 1 -4 -2 3 -1 2 5 -6 -3 1 -3 -3 -3 -2 3 2 2 1 2 1 -0 -1 1 -2 -3 -2 -1 -1 -1 -1 -1 -1 -1 1 1 1 1 -0 -1 -0 -2 -1 -3 -3 -6 2 3
-1 -1 -0 -4 4 -6 -6 10 -5 -4 -2 -1 4 5 -2 -2 -2 -2 -3 -1 1 2 2 -1 -1 -1 -1 -0 0 -0 -1 -1 -3 -3 -4 -3 -2 -2 -2 -1 -2 -1 -3 -2 -2 1 -2 -4 -3
-2 -1 -1 -3 1 -3 -4 7 2 1 1 1 2 4 4 4 0 -3 -3 -0 2 -0 1 1 0 0 -0 1 1 0 -2 -2 -2 -1 -3 -3 -3 -4 -3 -2 -1 1 -1 -4 -6 -3 -1 2 2
-3 -2 -2 5 -1 -5 -2 2 -2 -4 1 5 8 7 4 1 1 5 -6 -2 -2 2 3 3 -1 -3 -1 -2 -3 -1 -3 -2 -3 -1 -2 -2 -3 -2 -4 -2 -3 2 -1 -4 -7 -5 -0 -3 -3
-1 0 -2 0 -4 -6 -4 1 1 -3 -4 -3 5 6 5 1 1 -1 -6 -2 -1 5 2 3 -0 -1 0 -4 -5 -3 -4 -4 -4 -4 -2 -3 -4 -2 -4 -3 -4 -2 -0 -6 -5 -4 -5 -3 -4
-0 -2 8 4 3 -14 -1 2 4 -2 -2 -5 2 4 4 2 5 1 -4 -6 -4 0 2 1 1 -2 -4 -3 -2 -4 -3 -3 -4 -5 -4 -3 -3 -5 -1 -0 -1 -3 3 -3 -6 -5 1 3 -7
0 0 1 -1 8 -9 -8 -7 -2 -5 -3 -2 2 3 7 6 6 3 -4 -1 0 3 1 -2 0 2 -3 -3 -3 -1 -2 -1 -2 -4 -2 -4 -4 -5 -5 -3 -1 -3 -2 0 -5 -2 0 7 -7
-0 -1 -3 -2 -4 -4 9 -37 1 -4 -3 -7 -3 3 7 8 10 8 -7 -3 -2 0 1 3 2 0 -0 -3 -3 -1 -1 -3 -4 -5 -4 -4 -3 -5 -2 -4 -2 -2 -2 -0 1 -1 -2 2 -5
5 1 -1 0 -4 -3 7 -26 8 5 5 -3 -4 -4 -1 6 7 6 -4 -4 4 0 2 0 -1 -2 -3 -0 -1 -3 -5 -3 -1 1 -3 -2 -4 -3 -5 -2 -1 -2 1 -3 -1 0 -4 0 1
-6 -0 -4 -2 2 -20 17 -1 17 6 -1 -5 0 0 -2 4 1 1 -2 6 0 3 0 -3 -3 -2 -3 -2 -1 -1 -2 -1 -1 -2 -2 -7 -1 -2 -3 -1 -1 1 -0 -1 -2 -0 0 -3 0
-1 -0 -4 -14 -8 -13 3 -11 13 6 0 1 -2 1 3 2 6 10 10 6 3 -5 -1 -4 -1 -3 0 -0 -2 -2 -1 -0 -1 -1 -0 -6 -2 -1 -3 -2 -0 2 -1 -2 -1 -2 4 1 -3
-8 5 3 -7 0 3 3 -17 -2 -1 -1 -2 -5 1 -4 7 7 14 9 1 -3 -1 -6 -3 -4 -3 -2 -0 -0 -2 -1 -1 -2 -1 -2 -3 -1 1 -2 -1 -1 4 -0 1 -1 -2 1 1 -1
11 -15 21 -3 -7 -4 6 -5 -1 2 -5 -4 3 -6 -4 1 -3 1 2 -4 -5 -4 -3 -2 -4 -2 -2 -5 -4 -2 -1 -2 -1 -1 -2 -2 -1 -1 -2 -1 -2 3 -2 1 -1 -3 -1 2 1
0 6 1 -1 -9 -5 -9 -4 4 9 3 -6 1 -2 -3 0 -2 -3 -1 -1 -7 -3 -3 -4 -1 -3 -1 -4 -5 -4 -2 -1 1 1 -1 -2 -1 -0 -2 0 -0 1 0 -3 -1 -3 2 -4 -3
7 -3 6 10 -5 -0 -3 -3 10 6 -3 -3 -1 -1 0 3 2 -0 -1 -1 -5 -2 1 -1 1 -2 -2 -2 -3 -4 -1 -1 -0 -1 1 0 -1 -0 -0 0 1 -1 -2 -2 -5 -1 -2 1 1
2 6 2 -6 -3 -9 0 -20 -0 2 -3 1 -2 1 1 4 1 -0 -1 -1 -2 -1 1 -1 0 -2 -1 -4 -3 -3 -1 0 -2 -3 1 1 1 -0 1 1 1 -0 -2 -3 -4 -3 -5 -1 -2
Height
5848 5845 5845 5843 5843 5837 5836 5836 5836 5837 5839 5840 5840 5841 5841 5841 5842 5844 5842 5841 5842 5843 5843 5844 5844 5844 5842 5841 5840 5838 5837 5835 5833 5832 5832 5830 5829 5829 5828 5826 5824 5823 5820 5818 5818 5817 5815 5815 5815
5844 5843 5842 5838 5836 5832 5833 5833 5834 5835 5837 5839 5839 5839 5839 5838 5837 5837 5837 5837 5838 5839 5839 5840 5840 5840 5838 5837 5836 5835 5834 5831 5830 5829 5828 5826 5826 5825 5824 5822 5820 5819 5818 5815 5814 5812 5812 5812 5810
5840 5839 5837 5833 5829 5828 5831 5830 5831 5833 5835 5836 5838 5838 5837 5835 5833 5834 5833 5834 5834 5834 5835 5835 5836 5835 5833 5832 5832 5831 5830 5829 5828 5826 5825 5824 5822 5821 5819 5818 5817 5815 5813 5811 5810 5810 5809 5808 5807
5835 5835 5832 5828 5829 5828 5827 5827 5828 5830 5832 5833 5833 5833 5832 5831 5830 5830 5829 5829 5829 5830 5830 5830 5829 5829 5829 5828 5827 5825 5824 5825 5822 5820 5819 5818 5817 5816 5815 5813 5812 5812 5809 5808 5807 5807 5805 5805 5803
5831 5829 5827 5826 5824 5822 5824 5825 5827 5828 5829 5831 5830 5830 5828 5826 5826 5826 5825 5824 5824 5825 5825 5824 5823 5824 5824 5822 5821 5820 5820 5819 5817 5816 5815 5814 5812 5811 5810 5809 5807 5806 5805 5804 5803 5802 5801 5800 5800
5826 5824 5823 5820 5819 5820 5824 5823 5821 5823 5825 5826 5827 5827 5825 5825 5825 5823 5822 5820 5819 5818 5818 5818 5817 5819 5819 5818 5816 5815 5813 5812 5812 5810 5810 5808 5806 5805 5804 5802 5801 5801 5800 5799 5798 5797 5796 5797 5796
5821 5820 5817 5816 5818 5818 5821 5822 5823 5823 5823 5822 5823 5823 5822 5822 5822 5821 5820 5817 5814 5812 5811 5811 5812 5812 5813 5812 5810 5808 5806 5806 5805 5804 5803 5801 5800 5798 5798 5796 5795 5794 5793 5792 5792 5792 5791 5791 5791
5817 5815 5813 5813 5815 5812 5816 5817 5819 5822 5821 5819 5818 5817 5817 5816 5816 5816 5814 5812 5810 5809 5807 5805 5804 5803 5803 5802 5801 5799 5799 5798 5798 5797 5794 5793 5792 5791 5791 5790 5788 5787 5786 5786 5785 5785 5785 5784 5783
5813 5812 5811 5812 5813 5813 5814 5814 5814 5817 5816 5815 5815 5814 5813 5813 5811 5810 5809 5807 5806 5804 5802 5801 5800 5799 5798 5797 5796 5793 5791 5790 5789 5788 5788 5787 5786 5784 5783 5782 5781 5779 5778 5777 5777 5776 5776 5776 5776
5809 5809 5808 5809 5810 5810 5810 5810 5812 5812 5812 5810 5809 5809 5808 5808 5808 5806 5804 5802 5800 5798 5798 5796 5794 5792 5791 5789 5788 5786 5785 5784 5783 5781 5780 5779 5778 5777 5775 5773 5772 5770 5769 5767 5767 5767 5766 5767 5767
5806 5806 5806 5806 5808 5808 5806 5806 5807 5806 5806 5805 5805 5804 5803 5803 5802 5800 5798 5796 5794 5792 5791 5789 5787 5785 5784 5783 5781 5779 5777 5776 5774 5772 5770 5768 5767 5765 5764 5762 5761 5759 5758 5757 5755 5756 5756 5756 5756
5802 5803 5802 5802 5803 5804 5804 5804 5804 5803 5802 5800 5800 5800 5799 5798 5797 5794 5792 5791 5790 5787 5784 5782 5780 5778 5776 5774 5772 5770 5768 5766 5764 5761 5759 5757 5755 5752 5750 5749 5748 5746 5745 5744 5744 5743 5743 5743 5743
5799 5800 5799 5800 5798 5798 5798 5800 5800 5800 5798 5797 5795 5794 5793 5792 5791 5790 5788 5786 5783 5781 5779 5776 5774 5771 5769 5767 5764 5762 5759 5757 5754 5751 5748 5745 5743 5741 5739 5737 5735 5733 5731 5730 5729 5729 5730 5730 5729
5795 5796 5796 5796 5795 5794 5791 5792 5793 5793 5792 5792 5790 5788 5787 5785 5783 5781 5778 5775 5774 5773 5771 5769 5766 5763 5760 5758 5755 5752 5749 5746 5744 5740 5738 5734 5731 5728 5725 5724 5722 5720 5718 5716 5715 5714 5714 5714 5714
5793 5792 5793 5791 5790 5791 5789 5791 5789 5785 5785 5784 5782 5782 5780 5778 5775 5771 5767 5766 5765 5763 5761 5758 5755 5752 5750 5747 5744 5741 5737 5734 5731 5728 5726 5722 5719 5715 5712 5709 5707 5705 5703 5702 5701 5699 5698 5699 5699
5789 5790 5789 5787 5788 5787 5784 5786 5782 5780 5778 5777 5775 5774 5772 5770 5769 5765 5762 5759 5756 5753 5750 5748 5744 5742 5739 5736 5733 5729 5726 5723 5719 5716 5714 5711 5707 5703 5699 5695 5692 5690 5687 5684 5683 5683 5682 5681 5682
5782 5783 5785 5784 5781 5780 5778 5779 5777 5774 5772 5771 5770 5769 5766 5764 5761 5758 5757 5752 5749 5746 5744 5739 5735 5732 5729 5726 5722 5718 5715 5711 5707 5704 5701 5697 5693 5689 5685 5681 5677 5673 5669 5666 5665 5664 5663 5662 5661
5775 5775 5777 5778 5776 5773 5771 5771 5769 5766 5764 5764 5764 5761 5758 5755 5753 5752 5749 5743 5740 5737 5733 5728 5725 5721 5718 5716 5713 5709 5704 5700 5696 5692 5688 5684 5679 5675 5670 5665 5661 5658 5653 5649 5646 5646 5644 5643 5643
5768 5768 5768 5770 5767 5763 5764 5764 5763 5759 5757 5755 5753 5751 5746 5744 5743 5741 5737 5734 5730 5727 5723 5719 5715 5711 5709 5705 5700 5694 5690 5686 5682 5678 5674 5670 5665 5661 5656 5651 5647 5643 5638 5634 5630 5630 5629 5625 5624
5759 5758 5759 5760 5759 5756 5754 5752 5749 5747 5746 5743 5743 5740 5737 5734 5732 5730 5726 5723 5720 5718 5714 5709 5705 5702 5698 5694 5688 5684 5680 5675 5671 5667 5662 5657 5653 5648 5644 5639 5634 5630 5626 5621 5619 5617 5616 5613 5611
5751 5748 5749 5748 5748 5746 5744 5741 5740 5738 5734 5734 5733 5730 5728 5725 5722 5719 5714 5711 5709 5707 5703 5699 5696 5692 5688 5682 5677 5672 5668 5663 5659 5654 5650 5645 5640 5636 5631 5627 5623 5619 5616 5612 5609 5606 5605 5603 5600
5741 5743 5739 5739 5737 5735 5733 5731 5732 5728 5725 5723 5722 5719 5717 5714 5711 5708 5702 5699 5698 5696 5691 5688 5685 5680 5674 5670 5666 5661 5657 5653 5647 5642 5637 5632 5628 5623 5620 5616 5613 5610 5607 5605 5601 5599 5597 5594 5591
5733 5729 5729 5728 5726 5724 5721 5720 5722 5716 5715 5713 5713 5710 5707 5705 5702 5697 5690 5688 5688 5683 5681 5679 5674 5669 5664 5659 5656 5651 5647 5641 5636 5631 5626 5621 5617 5614 5611 5607 5604 5602 5600 5598 5594 5592 5589 5586 5583
5721 5719 5717 5715 5712 5710 5711 5706 5710 5706 5703 5700 5699 5698 5698 5696 5691 5685 5680 5679 5676 5674 5671 5667 5662 5658 5653 5649 5645 5640 5635 5629 5624 5620 5615 5611 5607 5604 5601 5598 5596 5594 5593 5591 5588 5585 5583 5580 5577
5706 5706 5704 5701 5699 5700 5697 5691 5695 5691 5689 5687 5686 5686 5686 5683 5680 5676 5672 5668 5667 5663 5659 5655 5651 5647 5643 5638 5633 5628 5623 5618 5614 5609 5605 5601 5598 5596 5592 5590 5588 5587 5585 5584 5582 5580 5576 5573 5571
5693 5693 5691 5686 5688 5688 5684 5680 5681 5680 5679 5677 5674 5674 5674 5673 5671 5668 5662 5658 5655 5653 5650 5646 5642 5638 5632 5627 5621 5616 5611 5606 5602 5599 5595 5591 5589 5587 5584 5582 5580 5579 5578 5576 5575 5573 5570 5567 5565
5684 5679 5682 5675 5676 5675 5673 5671 5671 5668 5668 5668 5664 5662 5662 5662 5659 5658 5654 5650 5649 5645 5641 5636 5632 5626 5620 5616 5610 5604 5598 5594 5591 5588 5584 5581 5579 5578 5575 5573 5572 5571 5570 5568 5567 5565 5562 5560 5557
5669 5671 5666 5663 5662 5663 5663 5663 5661 5660 5660 5659 5657 5655 5653 5651 5649 5648 5646 5643 5640 5635 5630 5625 5621 5615 5609 5603 5597 5590 5585 5581 5578 5575 5572 5570 5569 5568 5566 5564 5564 5562 5561 5560 5559 5557 5554 5552 5549
5657 5655 5655 5654 5653 5651 5652 5654 5653 5650 5648 5647 5647 5645 5644 5644 5642 5640 5637 5634 5629 5625 5620 5616 5610 5603 5598 5591 5585 5581 5576 5572 5569 5565 5562 5560 5559 5558 5557 5556 5555 5554 5553 5552 5550 5548 5545 5542 5540
5646 5644 5642 5640 5641 5643 5642 5645 5643 5642 5639 5638 5637 5635 5636 5635 5632 5630 5627 5623 5619 5615 5609 5604 5599 5593 5587 5581 5577 5574 5570 5566 5562 5558 5555 5552 5550 5550 5549 5548 5547 5545 5545 5543 5541 5538 5536 5533 5530